Disclaimer   
PNR Super Search
 ♦ 
×
HashTag:
PNR Number:
Train Type:
Train:
From Station:
To Station:
Train Class:
2SSLCCEx3AFC2A1A3E
WL Quota:
DOJ From:
DOJ To:
Blogger:
Traveller:
Predictor:
Prediction:
WLRACConf
Stamper:
Final:
WLRACConfVoidQ-ConfUnStamped
Status:
Reaction:

Search
  Go  
 
Mon Mar 2, 2015 09:06:08 ISTHomeTrainsΣChainsAtlasPNRForumGalleryNewsFAQTripsMembersLoginFeedback
Mon Mar 2, 2015 09:06:08 IST
Post PNRPNR StatusModify Search

Ticket PNR Status Inquiry - PNR: 810-xxxxxxx (E-Ticket)

OLD STATUS

Status Last Updated on: May 21 2012 (7:50PM) IST

Date of Journey: Tue May 22, 2012   Class: Sleeper - SL   (Total Seats available for this Class/Quota: Avbl >183)
Passenger 1: SX1,33/Coach Position:11 (Booking Status: W/L 43,GNWL)
Passenger 2: SX1,36/Coach Position:11 (Booking Status: W/L 44,GNWL)
Passenger 3: SX1,34/Coach Position:11 (Booking Status: W/L 45,GNWL)
Passenger 4: SX1,35/Coach Position:11 (Booking Status: W/L 46,GNWL)
Passenger 5: SX1,37/Coach Position:11 (Booking Status: W/L 47,GNWL)
Passenger 6: SX1,38/Coach Position:11 (Booking Status: W/L 48,GNWL)
Chart PREPARED

Mumbai Bandra Terminus- Dehradun Express/19019

Travel Time: 34h 46m    85 halts    Distance: 1408 km    Avg Speed: 40 km/hr
Type: Mail/Express
Zone: WR/Western
Departs @ 04:04 (Avg 10m late)
Platform# 1
SMTWTFS
NVS/Navsari 
Arrives @ 14:50 +1 night (Avg 38m late)
Platform# 1
SMTWTFS
HW/Haridwar Junction 

85 halts. 214 intermediate Stations between Navsari and Haridwar Junction

Show ALL intermediate Stations  Show Old Time-Table

#TrkCodeStation NameX/OArrivesAvgDepartsAvgHaltPFDay#KmSpeedElevZoneAddress
1/==/BDTSMumbai Bandra Terminus  -00:05+111-222.6374mWRMumbai 400050, Maharashtra
2/==/BVIMumbai Borivali  00:35+700:40+65m61-203.85019mWRMumbai - 400092, Maharashtra
3/==/BSRVasai Road  01:01+501:03+62m31-186.4747mWRVasai 401202, Maharashtra
4/==/PLGPalgharX  01:35+1901:37+212m11-146.85219mWRPalghar, Maharashtra
5/==/DRDDahanu RoadX  02:15+1102:17+122m11-113.99112mWRDahanu, Maharashtra
6/==/VAPIVapiX  02:49+1502:51+152m11-65.35427mWRVapi, Gujarat
7/==/BLValsadX  03:20+803:25+115m11-39.15715mWRValsad, Gujarat
8/==/BIMBilimora JunctionX  03:44+703:46+72m11-21.27911mWRBilimora, Gujarat
9/==/NVSNavsari»X  04:02+1004:04+102m110.04914mWRNavsari, Gujarat
10/==/STSuratX  04:40+204:45+35m1129.67219mWRSurat 395001, Gujarat
11/==/KSBKosamba Junction05:11+1005:13+102m--161.013930mWRKosamba, Gujarat
12/==/AKVAnkleshwar JunctionX  05:21+1905:23+192m1179.64319mWRAnkleshwar, Gujarat
13/==/BHBharuch JunctionX  05:36+2005:38+202m3188.98719mWRBharuch, Gujarat
14/==/MYGMiyagam Karjan  06:06+2306:08+222m21129.65629mWRKarjan, Gujarat
15/==/BRCVadodara JunctionXO  06:40+2706:50+2810m21159.46736mWRVadodara 390005, Gujarat
16/==/SMLASamlaya Junction  07:14+1:0207:16+1:022m21186.06767mWRVadodara, Gujarat
17/==/CPNChampaner Road Junction  07:26+4307:28+432m21197.25478mWRPanchmahal, Gujarat
18/==/DRLDerolX  07:42+4107:44+412m21209.77681mWRKalol, Gujarat
19/==/KRSAKharsaliyaX  07:54+5007:56+492m21222.427107mWRPanchmahal, Gujarat
20/==/GDAGodhra Junction  08:20+2308:25+225m21233.358122mWRGodhra, Gujarat
21/==/SATSant Road  08:46+2908:47+301m21253.765169mWROrwara, Gujarat
22/==/PPDPiplod Junction  08:58+3208:59+321m21265.568209mWRPiplod, Gujarat
23/==/LMKLimkhedaXO  09:06+3609:08+372m21273.525205mWRLimkheda, Gujarat
24/==/MAMMangal MahudiX  09:29+2609:30+261m21282.197248mWRDabhada, Gujarat
25/==/DHDDahodXO  09:45+3309:50+335m21306.445313mWRDahod, Gujarat
26/==/BIOBordi  10:04+3010:05+301m--1317.068289mWRNational Highway 59, Gujarat
27/==/ANASAnasX  10:12+3110:13+311m--1324.973288mWRMadhya Pradesh 389154 ?, Madhya Pradesh
28/==/MGNMeghnagar  10:25+3310:27+332m--1339.560317mWRJhabua, Madhya Pradesh
29/==/THDRThandla Road  10:35+3410:36+341m--1347.564317mWRJhabua, Madhya Pradesh
30/==/PCNPanch Pipila  10:49+3510:50+351m--1361.452369mWRSH 39A, Madhya Pradesh
31/==/AGRAmargarh  11:01+3311:02+331m--1370.950410mWRSH 39A, Madhya Pradesh
32/==/BMIBamnia  11:07+3411:09+342m--1375.045392mWRBamnia, Madhya Pradesh
33/==/BOGBhairongarh  11:17+3411:18+341m--1381.065374mWRBhairongarh Railway Station, Madhya Pradesh
34/==/RTIRaotiX  11:29+3511:30+371m--1392.954409mWRState Highway 39A, Madhya Pradesh
35/==/BILDBildiX  11:38+3711:39+371m--1400.060422mWRMadhya Pradesh, Madhya Pradesh
36/==/MRNMorwaniX  11:48+3711:49+381m--1409.121459mWRDantoda, Madhya Pradesh
37/==/RTMRatlam JunctionX  12:20+3212:40+3120m51419.849495mWRRatlam 457001, Madhya Pradesh
38/==/BODBangrod  12:52+3612:53+361m--1429.655484mWRRatlam, Madhya Pradesh
39/==/RNHRunkhera  13:01+3513:02+361m--1437.057478mWRUjjain, Madhya Pradesh
40/==/KUHKhachrodX  13:13+3613:15+372m--1447.514497mWRUjjain, Madhya Pradesh
41/==/NADNagda Junction  14:15+114:25+410m11461.257468mWRNagda, Madhya Pradesh
42/==/MEPMahidpur RoadX  14:43+914:45+112m--1478.380493mWCRGogapur, Madhya Pradesh
43/==/LNRLuni RichhaX  14:53+1214:55+122m--1488.961471mWCRAlote, Madhya Pradesh
44/==/VMAVikramgarh Alot  15:08+915:10+102m21502.251443mWCRKota Division, Madhya Pradesh
45/==/THURThuria  15:19+1015:21+102m--1509.871430mWCRMDR 45, Madhya Pradesh
46/==/CMUChau MahlaX  15:33+1115:35+142m21524.066426mWCRJhalawar, Rajasthan
47/==/SVASuwasraX  15:49+1515:50+171m--1539.462450mWCRSuwasra, Madhya Pradesh
48/==/SGZShamgarhX  16:03+1916:08+185m--1552.859463mWCRMandsaur, Madhya Pradesh
49/==/GOHGarothX  16:19+1816:20+201m21563.772441mWCRMadhya Pradesh 458880, Madhya Pradesh
50/==/BWMBhawani MandiX  16:39+1816:41+202m--1586.358384mWCRBhawani Mandi, Madhya Pradesh
51/==/JHWJhalawar Road  16:58+2017:00+212m--1602.857361mWCRJhalawar City, Rajasthan
52/==/RMARamganj Mandi JunctionXO  17:13+1917:15+232m--1615.242358mWCRRamganj Mandi, Rajasthan
53/==/MKXMorak  17:28+2117:30+222m--1624.268337mWCRMorak, Rajasthan
54/==/DARADaraX  17:43+2317:45+242m--1639.060354mWCRDara, Rajasthan
55/==/DKNTDakaniya TalavO  18:23+2218:25+252m11677.114278mWCRKota, Rajasthan
56/==/KOTAKota JunctionX  19:05+519:35+3330m11686.436256mWCRKota, Rajasthan
57|--|GQLGurla  19:44+3919:46+382m--1691.853251mWCRSH 33, Rajasthan
58/==/KPTNKeshorai PatanXO  19:55+3719:57+382m--1699.886243mWCRSH 33, Rajasthan
59/==/LKELakheriX  20:30+4720:32+482m--1746.951228mWCRBundi, Rajasthan
60/==/IDGIndargarh Sumerganj MandiXO  20:45+4820:47+492m--1757.953247mWCRIndargarh, Rajasthan
61/==/SWMSawai Madhopur Junction  21:28+4021:30+432m--1794.179266mWCRSawai Madhopur, Rajasthan
62/==/MLZMalarnaO  21:53+4321:55+442m--1824.345236mWCRSawai Madhopur, Rajasthan
63/==/GGCGangapur City  22:40+3722:45+415m21858.089270mWCRGangapur, Rajasthan
64/==/SMBJShri Mahabirji  23:08+4423:10+442m--1892.147240mWCRKarauli, Rajasthan
65/==/HANHindaun CityO  23:23+4423:25+472m--1902.344230mWCRKarauli, Rajasthan
66/==/BXNBayana Junction  00:10+3400:15+345m--2935.257198mWCRBayana, Rajasthan
67/==/BTEBharatpur JunctionX  00:59+2701:00+381m--2977.225174mWCRBharatpur, Rajasthan
68/==/MTJMathura Junction  02:20+1702:25+225m321010.775179mNCRMathura, Uttar Pradesh
69/==/KSVKosi Kalan  02:58+3103:00+322m121052.148189mNCRKosi Kalan, Uttar Pradesh
70/==/PWLPalwalO  03:53+1803:55+242m--21094.662200mNRPalwal, Haryana
71/==/ASTAsaoti  04:06+3004:08+302m321105.959203mNRAsaoti, Haryana
72/==/BVHBallabgarh  04:18+3504:20+352m321115.837203mNRFaridabad, Haryana
73/==/FDBFaridabad  04:33+3804:35+382m221123.939206mNRold Faridabad, Haryana
74/==/TKDTuglakabad  04:52+3704:54+372m221134.945213mNRNear Tughlakabad Metro Station, Delhi NCT
75/==/OKAOkhlaO  05:02+3805:04+382m--21141.014221mNRIshwar Nagar Mathura Road, Delhi NCT
76/==/NZMDelhi Hazrat NizamuddinX05:20+4205:50+4130m121144.642209mNRNew Delhi 110013, Delhi NCT
77/==/SBBSahibabad JunctionX  06:13+5406:15+552m--21160.722209mNRGhaziabad, Uttar Pradesh
78/==/GZBGhaziabad Junction  06:33+5406:35+542m121167.459217mNRGhaziabad, Uttar Pradesh
79%==%GZNNew Ghaziabad  06:41+4306:43+432m--21173.370213mNRGhaziabad, Uttar Pradesh
80%==%MUDMuradnagar  06:53+1:0806:55+1:142m--21185.067220mNRGhaziabad, Uttar Pradesh
81%==%MDNRModinagarX  07:04+1:2007:06+1:212m--21195.149221mNRGhaziabad, Uttar Pradesh
82%==%MTCMeerut City JunctionXO  07:30+1:1408:43+4873m421214.652229mNRMeerut, Uttar Pradesh
83%--%MUTMeerut Cantt.  08:48+5208:50+562m--21218.925230mNRMeerut, Uttar Pradesh
84%--%PQYPabli KhasX  09:01+5309:03+542m--21223.533229mNRMeerut, Uttar Pradesh
85%--%DRLADauralaX  09:15+4709:17+482m--21230.157232mNRMeerut, Uttar Pradesh
86%--%KATKhatauli  09:36+4509:38+472m121248.034239mNRKhatauli, Uttar Pradesh
87%--%JDWJarauda NaraX  10:09+3910:10+401m--21265.514245mNRMuzaffarNagar, Uttar Pradesh
88%--%MOZMuzaffarnagarX  10:30+3410:32+372m221270.233247mNRMuzaffarNagar, Uttar Pradesh
89%--%BMHRBamanheriX  10:41+2710:43+272m--21275.250249mNRMuzaffarnagar, Uttar Pradesh
90%--%DBDDeobandX  11:06+2111:08+222m--21294.231258mNRSaharanpur, Uttar Pradesh
91/--/SRESaharanpur JunctionXO12:15+1412:45+1230m521328.477276mNRSaharanpur, Uttar Pradesh
92/==/RKRoorkee  13:12+2813:17+275m121363.138264mNRRoorkee - 247667, Uttarakhand
93/==/LRJLaksar JunctionX13:45+2014:10+2125m--21380.969238mNRLaksar, Uttarakhand
94%--%JWPJwalapur  14:30+3514:32+432m121403.913292mNRHaridwar, Uttarakhand
95%--%HWHaridwar Junction•X  14:50+3815:20+3430m121407.927294mNRHaridwar, Uttarakhand
96|--|MOTCMotichur  15:30+3015:32+332m121412.436312mNRHaridwar, Uttarakhand
97%--%RWLRaiwala Junction  15:43+3415:45+362m121419.027361mNRRishikesh, Uttarakhand
98%--%DWODoiwala  16:31+2216:33+262m121439.719484mNRDehradun, Uttarakhand
99%--%DDNDehradun  17:35+14-321459.5-648mNRDehradun, Uttarakhand
Scroll to Top
Scroll to Bottom


Go to Mobile site